• en France
  • Liste des pays
  • À 7 jours
  • Température de l'eau
  • Carte satellitaire
  • Carte météo
  • Widgets météo
  • user-avatar
    Se connecter

    Météo par heure à Niamey

    Ce jour, 25 Septembre, Mardi

    Heure Température Précipitation Vent Pression Humidité
    00:00 +34°C° 0 mm 4 m/s 741 mmHg 51%
    01:00 +34°C° 0 mm 4 m/s 741 mmHg 53%
    02:00 +33°C° 0 mm 4 m/s 740 mmHg 54%
    03:00 +32°C° 0 mm 4 m/s 740 mmHg 55%
    04:00 +32°C° 0 mm 4 m/s 740 mmHg 56%
    05:00 +31°C° 0 mm 3 m/s 740 mmHg 57%
    06:00 +31°C° 0 mm 2 m/s 740 mmHg 60%
    07:00 +32°C° 0 mm 2 m/s 741 mmHg 55%
    08:00 +34°C° 0 mm 2 m/s 741 mmHg 50%
    09:00 +36°C° 0 mm 2 m/s 742 mmHg 45%
    10:00 +37°C° 0 mm 2 m/s 741 mmHg 40%
    11:00 +39°C° 0 mm 2 m/s 741 mmHg 34%
    12:00 +39°C° 0 mm 1 m/s 741 mmHg 35%
    13:00 +40°C° 0 mm 2 m/s 740 mmHg 31%
    14:00 +42°C° 0 mm 3 m/s 739 mmHg 28%
    15:00 +43°C° 0 mm 4 m/s 739 mmHg 24%
    16:00 +42°C° 0 mm 4 m/s 739 mmHg 25%
    17:00 +42°C° 0 mm 4 m/s 739 mmHg 25%
    18:00 +40°C° 0 mm 3 m/s 738 mmHg 26%
    19:00 +39°C° 0 mm 3 m/s 739 mmHg 28%
    20:00 +39°C° 0 mm 3 m/s 739 mmHg 30%
    21:00 +38°C° 0 mm 3 m/s 740 mmHg 31%
    22:00 +37°C° 0 mm 3 m/s 740 mmHg 33%
    23:00 +36°C° 0 mm 3 m/s 740 mmHg 36%

    Demain, 26 Septembre, Mercredi

    Heure Température Précipitation Vent Pression Humidité
    00:00 +36°C° 0 mm 3 m/s 740 mmHg 38%
    01:00 +35°C° 0 mm 3 m/s 739 mmHg 40%
    02:00 +35°C° 0 mm 2 m/s 739 mmHg 41%
    03:00 +34°C° 0 mm 2 m/s 739 mmHg 43%
    04:00 +34°C° 0 mm 2 m/s 739 mmHg 44%
    05:00 +32°C° 0 mm 2 m/s 739 mmHg 45%
    06:00 +32°C° 0 mm 2 m/s 739 mmHg 46%
    07:00 +35°C° 0 mm 3 m/s 740 mmHg 43%
    08:00 +36°C° 0 mm 3 m/s 740 mmHg 40%
    09:00 +38°C° 0 mm 4 m/s 741 mmHg 37%
    10:00 +39°C° 0 mm 3 m/s 740 mmHg 33%
    11:00 +40°C° 0 mm 3 m/s 740 mmHg 30%
    12:00 +43°C° 0 mm 3 m/s 740 mmHg 26%
    13:00 +43°C° 0 mm 3 m/s 739 mmHg 24%
    14:00 +44°C° 0 mm 4 m/s 738 mmHg 21%
    15:00 +46°C° 0 mm 5 m/s 737 mmHg 18%
    16:00 +44°C° 0 mm 4 m/s 737 mmHg 19%
    17:00 +43°C° 0 mm 4 m/s 738 mmHg 21%
    18:00 +42°C° 0 mm 3 m/s 738 mmHg 22%
    19:00 +40°C° 0 mm 3 m/s 738 mmHg 25%
    20:00 +40°C° 0 mm 4 m/s 739 mmHg 27%
    21:00 +38°C° 0 mm 4 m/s 739 mmHg 30%
    22:00 +37°C° 0 mm 4 m/s 739 mmHg 34%
    23:00 +36°C° 0 mm 4 m/s 739 mmHg 39%

    Après-demain, 27 Septembre, Jeudi

    Heure Température Précipitation Vent Pression Humidité
    00:00 +36°C° 0 mm 5 m/s 739 mmHg 43%
    01:00 +35°C° 0 mm 5 m/s 739 mmHg 47%
    02:00 +34°C° 0 mm 6 m/s 739 mmHg 51%
    03:00 +34°C° 0 mm 6 m/s 739 mmHg 54%
    04:00 +33°C° 0 mm 6 m/s 739 mmHg 57%
    05:00 +33°C° 0 mm 6 m/s 739 mmHg 59%
    06:00 +32°C° 0 mm 6 m/s 739 mmHg 62%
    07:00 +33°C° 0 mm 6 m/s 740 mmHg 58%
    08:00 +34°C° 0 mm 6 m/s 740 mmHg 54%
    09:00 +36°C° 0 mm 7 m/s 741 mmHg 50%
    10:00 +38°C° 0 mm 6 m/s 740 mmHg 44%
    11:00 +40°C° 0 mm 5 m/s 740 mmHg 39%
    12:00 +41°C° 0 mm 4 m/s 739 mmHg 34%
    13:00 +42°C° 0 mm 3 m/s 739 mmHg 31%
    14:00 +42°C° 0 mm 2 m/s 738 mmHg 28%
    15:00 +42°C° 0 mm 1 m/s 737 mmHg 25%
    16:00 +41°C° 0 mm 2 m/s 737 mmHg 25%
    17:00 +41°C° 0 mm 2 m/s 737 mmHg 26%
    18:00 +40°C° 0 mm 3 m/s 738 mmHg 26%
    19:00 +39°C° 0.1 mm 3 m/s 738 mmHg 29%
    20:00 +39°C° 0.1 mm 3 m/s 739 mmHg 31%
    21:00 +38°C° 0.1 mm 3 m/s 739 mmHg 34%
    22:00 +37°C° 0 mm 4 m/s 739 mmHg 38%
    23:00 +36°C° 0 mm 6 m/s 739 mmHg 43%

    28 Septembre, Vendredi

    Heure Température Précipitation Vent Pression Humidité
    00:00 +35°C° 0 mm 7 m/s 739 mmHg 47%
    01:00 +35°C° 0 mm 6 m/s 739 mmHg 49%
    02:00 +34°C° 0 mm 6 m/s 739 mmHg 52%
    03:00 +33°C° 0 mm 6 m/s 738 mmHg 54%
    04:00 +33°C° 0 mm 6 m/s 739 mmHg 56%
    05:00 +33°C° 0 mm 6 m/s 739 mmHg 58%
    06:00 +32°C° 0 mm 6 m/s 739 mmHg 59%
    07:00 +34°C° 0 mm 6 m/s 740 mmHg 54%
    08:00 +35°C° 0 mm 6 m/s 740 mmHg 49%
    09:00 +38°C° 0 mm 6 m/s 741 mmHg 44%
    10:00 +39°C° 0 mm 6 m/s 740 mmHg 39%
    11:00 +41°C° 0 mm 6 m/s 740 mmHg 35%
    12:00 +42°C° 0 mm 5 m/s 739 mmHg 30%
    13:00 +43°C° 0 mm 4 m/s 738 mmHg 28%
    14:00 +43°C° 0 mm 3 m/s 738 mmHg 26%
    15:00 +42°C° 0 mm 2 m/s 737 mmHg 24%
    16:00 +42°C° 0.1 mm 2 m/s 737 mmHg 26%
    17:00 +42°C° 0.1 mm 3 m/s 737 mmHg 27%
    18:00 +40°C° 0.1 mm 3 m/s 737 mmHg 28%
    19:00 +39°C° 0.1 mm 3 m/s 738 mmHg 32%
    20:00 +38°C° 0.1 mm 4 m/s 738 mmHg 36%
    21:00 +37°C° 0.1 mm 4 m/s 739 mmHg 39%
    22:00 +36°C° 0.1 mm 4 m/s 739 mmHg 43%
    23:00 +35°C° 0.1 mm 5 m/s 739 mmHg 47%

    29 Septembre, Samedi

    Heure Température Précipitation Vent Pression Humidité
    00:00 +34°C° 0.1 mm 6 m/s 739 mmHg 51%
    01:00 +34°C° 0 mm 5 m/s 739 mmHg 52%
    02:00 +34°C° 0 mm 5 m/s 739 mmHg 53%
    03:00 +33°C° 0 mm 5 m/s 739 mmHg 54%
    04:00 +33°C° 0 mm 4 m/s 739 mmHg 55%
    05:00 +33°C° 0 mm 4 m/s 739 mmHg 57%
    06:00 +32°C° 0 mm 4 m/s 740 mmHg 58%
    07:00 +34°C° 0 mm 4 m/s 740 mmHg 52%
    08:00 +35°C° 0 mm 5 m/s 740 mmHg 46%
    09:00 +38°C° 0 mm 6 m/s 741 mmHg 40%
    10:00 +39°C° 0 mm 5 m/s 740 mmHg 36%
    11:00 +41°C° 0 mm 5 m/s 739 mmHg 32%
    12:00 +42°C° 0 mm 4 m/s 738 mmHg 27%
    13:00 +42°C° 0 mm 3 m/s 738 mmHg 26%
    14:00 +42°C° 0 mm 2 m/s 737 mmHg 24%
    15:00 +42°C° 0 mm 1 m/s 737 mmHg 22%
    16:00 +42°C° 0 mm 2 m/s 737 mmHg 23%
    17:00 +41°C° 0 mm 2 m/s 738 mmHg 25%
    18:00 +41°C° 0 mm 2 m/s 738 mmHg 26%
    19:00 +40°C° 0.1 mm 3 m/s 738 mmHg 28%
    20:00 +40°C° 0.1 mm 4 m/s 739 mmHg 30%
    21:00 +38°C° 0.1 mm 4 m/s 739 mmHg 32%
    22:00 +37°C° 0.3 mm 3 m/s 739 mmHg 35%
    23:00 +36°C° 0.3 mm 3 m/s 739 mmHg 37%

    30 Septembre, Dimanche

    Heure Température Précipitation Vent Pression Humidité
    00:00 +35°C° 0.3 mm 2 m/s 739 mmHg 39%
    01:00 +35°C° 0.1 mm 2 m/s 739 mmHg 41%
    02:00 +34°C° 0.1 mm 3 m/s 739 mmHg 44%
    03:00 +34°C° 0.1 mm 3 m/s 738 mmHg 46%
    04:00 +33°C° 0 mm 4 m/s 739 mmHg 50%
    05:00 +32°C° 0 mm 4 m/s 739 mmHg 55%
    06:00 +32°C° 0 mm 4 m/s 739 mmHg 59%
    07:00 +33°C° 0 mm 5 m/s 740 mmHg 55%
    08:00 +35°C° 0 mm 5 m/s 740 mmHg 50%
    09:00 +36°C° 0 mm 5 m/s 741 mmHg 45%
    10:00 +37°C° 0 mm 5 m/s 741 mmHg 42%
    11:00 +39°C° 0 mm 5 m/s 740 mmHg 39%
    12:00 +40°C° 0 mm 5 m/s 740 mmHg 36%
    13:00 +39°C° 0 mm 5 m/s 740 mmHg 39%
    14:00 +36°C° 0 mm 5 m/s 739 mmHg 41%
    15:00 +35°C° 0 mm 5 m/s 739 mmHg 44%
    16:00 +35°C° 0 mm 4 m/s 739 mmHg 42%
    17:00 +35°C° 0 mm 3 m/s 738 mmHg 41%
    18:00 +35°C° 0 mm 2 m/s 738 mmHg 39%
    19:00 +34°C° 0 mm 3 m/s 739 mmHg 41%
    20:00 +34°C° 0 mm 3 m/s 739 mmHg 42%
    21:00 +34°C° 0 mm 3 m/s 740 mmHg 43%
    22:00 +33°C° 0 mm 3 m/s 740 mmHg 47%
    23:00 +33°C° 0 mm 3 m/s 740 mmHg 50%
    Voir plus